Regional Weather Roundup
Issued by NWS

Home | Current Version | Previous Version | Graphics & Text | Print | Product List | Glossary On
Versions: 1 2 3 4 5 6 7 8 9 10 11 12 13 14 15 16 17 18 19 20 21 22 23 24 25 26 27 28 29 30 31 32 33 34 35 36 37 38 39 40 41 42 43 44 45 46 47 48 49 50
000
ASUS45 KCYS 280710
RWRWY

WYOMING REGIONAL WEATHER ROUNDUP
NATIONAL WEATHER SERVICE CHEYENNE WY
100 AM MDT FRI APR 28 2017

NOTE:  "FAIR" INDICATES FEW OR NO CLOUDS BELOW 12,000 FEET
WITH NO SIGNIFICANT WEATHER AND/OR OBSTRUCTIONS TO VISIBILITY.

WYZ001-280800-
YELLOWSTONE NATIONAL PARK

CITY           SKY/WX    TMP DP  RH WIND       PRES   REMARKS
LK YELLOWSTONE   N/A     25  23  92 CALM      29.77S
W YELLOWSTONE  NOT AVBL

$$
WYZ002>013-054>058-071-098>099-280800-
NORTHERN WYOMING

CITY           SKY/WX    TMP DP  RH WIND       PRES   REMARKS
JACKSON        CLOUDY    30  30 100 CALM      29.78S
CODY           FLURRIES  34  32  92 N13       29.77R WCI  25
GREYBULL       CLOUDY    39  33  79 NW24G31   29.69R WCI  28
WORLAND        CLOUDY    39  36  89 N12       29.69R WCI  32
SHERIDAN       LGT RAIN  34  32  92 W9        29.76R WCI  27
BUFFALO        SNOW      34  31  88 NW14      29.73S VSB 1/2 WCI  25
GILLETTE       SNOW      33  33 100 N5        29.70R WCI  29
HULETT         LGT SNOW  36  32  87 E14G23    29.74S WCI  27
NEWCASTLE      NOT AVBL

$$
WYZ014>020-022>026-101>103-280800-
CENTRAL WYOMING

CITY           SKY/WX    TMP DP  RH WIND       PRES   REMARKS
BIG PINEY      CLOUDY    30  20  66 NW9       29.75S WCI  22
PINEDALE       CLOUDY    30  23  74 NW14      29.74S WCI  20
DUBOIS         CLOUDY    30  21  69 W20       29.69S WCI  18
LANDER         LGT SNOW  33  31  92 W6        29.70S FOG     WCI  28
RIVERTON       LGT SNOW  32  32 100 NW3       29.70S FOG
CASPER         LGT SNOW  32  31  96 N10       29.65S FOG     WCI  24
DOUGLAS        CLOUDY    35  33  92 NE12      29.63S WCI  27

$$
WYZ021-027>030-104>119-280800-
SOUTHERN WYOMING

CITY           SKY/WX    TMP DP  RH WIND       PRES   REMARKS
EVANSTON       MOCLDY    25  23  92 W13       29.82S WCI  14
ROCK SPRINGS   FAIR      30  22  72 W20       29.75F WCI  17
DIXON            N/A     32  23  69 SW9       29.78S WCI  24
RAWLINS        SNOW      30  27  88 W20G26    29.68S VSB 1/4 WCI  17
SARATOGA       CLOUDY    32  21  64 W12       29.70S WCI  23
LARAMIE        FAIR      28  20  71 SW13      29.63F WCI  17
CHEYENNE       FAIR      32  26  78 SW7       29.62F WCI  26
TORRINGTON     CLOUDY    41  39  93 E8        29.60S
PINE BLUFFS    FAIR      34  32  93 S6        29.63S WCI  29

$$



USA.gov is the U.S. government's official web portal to all federal, state and local government web resources and services.